Flag Weather past 2 weeks in Cuiabá, Mato Grosso, Brazil

Now
88 °F

Broken clouds.


Feels Like: 93 °F
Forecast: 74 / 85 °F
Wind: 14 mph from North

Location: Cuiaba Aeroporto

Current Time: Nov 28, 2014 at 2:37:07 PM

Latest Report: Nov 28, 2014 at 2:00 PM


Visibility: N/A

Pressure: 29.83 "Hg

Humidity: 55%

Dew point: 70 °F

Location of CuiabáLocation

Historic Weather in Cuiabá — Graph

°F

Cuiabá temperature yesterday

Maximum temperature yesterday: 88 °F (at 1:00 PM)
Minimum temperature yesterday: 75 °F (at 2:00 AM)
Average temperature yesterday: 80 °F

Past Weeks' High & Low Weather Summary

 TemperatureHumidityPressure
High99 °F (Nov 18, 2:00 PM)94% (Nov 14, 5:00 AM)29.98 "Hg (Nov 14, 5:00 AM)
Low72 °F (Nov 22, 3:00 AM)25% (Nov 17, 2:00 PM)29.68 "Hg (Nov 18, 4:00 PM)
Average82 °F68%29.84 "Hg
* Reported Nov 13 1:00 PM — Nov 28 1:00 PM, Cuiabá, Weather by CustomWeather, © 2014

Note: Actual official high and low records may vary slightly from our data, if they occured in-between our weather recording intervals... More about our weather records

Advertising

Cuiabá weather history for previous 24 hours

 ConditionsComfort  
Time TempWeatherWind HumidityBarometerVisibility
1:00 PM
Nov 28
88 °FBroken clouds.14 mph59%29.86 "HgN/A
12:00 PM86 °FBroken clouds.12 mph62%29.89 "HgN/A
11:00 AM84 °FBroken clouds.9 mph70%29.89 "HgN/A
10:00 AM86 °FPartly sunny.10 mph66%29.92 "HgN/A
9:00 AM82 °FPartly sunny.10 mph74%29.89 "HgN/A
8:00 AM81 °FPartly sunny.13 mph79%29.89 "HgN/A
7:00 AM79 °FPartly sunny.3 mph84%29.86 "HgN/A
6:00 AM77 °FPassing clouds.3 mph89%29.83 "HgN/A
5:00 AM77 °FPartly cloudy.5 mph89%29.83 "HgN/A
4:00 AM77 °FPartly cloudy.6 mph89%29.83 "HgN/A
3:00 AM79 °FPassing clouds.6 mph84%29.89 "HgN/A
2:00 AM79 °FPassing clouds.6 mph84%29.89 "HgN/A
1:00 AM79 °FPassing clouds.8 mph84%29.86 "HgN/A
12:00 AM79 °FPassing clouds.6 mph84%29.89 "HgN/A
11:00 PM
Nov 27
79 °FPassing clouds.5 mph89%29.89 "HgN/A
10:00 PM79 °FPassing clouds.3 mph89%29.86 "HgN/A
9:00 PM79 °FPassing clouds.2 mph89%29.86 "HgN/A
8:00 PM79 °FPassing clouds.3 mph89%29.83 "HgN/A
7:00 PM79 °FPassing clouds.No wind89%29.80 "HgN/A
6:00 PM79 °FBroken clouds.5 mph84%29.77 "HgN/A
5:00 PM77 °FLight rain. Partly sunny.8 mph89%29.77 "Hg2 mi
4:00 PM84 °FScattered showers. Partly sunny.17 mph74%29.80 "HgN/A
3:00 PM88 °FPartly sunny.8 mph59%29.80 "HgN/A
2:00 PM88 °FPartly sunny.9 mph59%29.83 "HgN/A
Weather by CustomWeather, © 2014

See weather overviewHow to use our weather pages